When you browse on this site, cookies collect data to enhance your experience and personalize the content and advertising you see.
Visit our Privacy Policy to learn more. By continuing to use the site, you agree to this use of cookies and data.
EN

Hourly Weather Druzhkovka

Today, 12 July, Sunday

Time Temperature Precipitation Wind Pressure Humidity
00:00 +19°C° 0 mm 3 mps 752 mmHg 67%
01:00 +19°C° 0 mm 3 mps 751 mmHg 70%
02:00 +18°C° 0 mm 3 mps 751 mmHg 72%
03:00 +18°C° 0 mm 3 mps 751 mmHg 75%
04:00 +18°C° 0 mm 3 mps 751 mmHg 76%
05:00 +18°C° 0 mm 3 mps 750 mmHg 77%
06:00 +18°C° 0 mm 3 mps 750 mmHg 78%
07:00 +20°C° 0 mm 3 mps 750 mmHg 72%
08:00 +22°C° 0 mm 4 mps 750 mmHg 67%
09:00 +25°C° 0 mm 4 mps 750 mmHg 61%
10:00 +27°C° 0 mm 4 mps 749 mmHg 59%
11:00 +29°C° 0 mm 5 mps 749 mmHg 56%
12:00 +32°C° 0 mm 5 mps 749 mmHg 54%
13:00 +32°C° 0.3 mm 4 mps 748 mmHg 53%
14:00 +32°C° 0.3 mm 4 mps 748 mmHg 52%
15:00 +33°C° 0.3 mm 3 mps 748 mmHg 50%
16:00 +31°C° 0.5 mm 3 mps 747 mmHg 55%
17:00 +30°C° 0.5 mm 3 mps 746 mmHg 60%
18:00 +29°C° 0.5 mm 3 mps 746 mmHg 64%
19:00 +27°C° 1.7 mm 3 mps 746 mmHg 72%
20:00 +25°C° 1.7 mm 3 mps 746 mmHg 80%
21:00 +22°C° 1.7 mm 3 mps 746 mmHg 87%
22:00 +22°C° 1.1 mm 3 mps 746 mmHg 88%
23:00 +23°C° 1.1 mm 2 mps 746 mmHg 89%

Tomorrow, 13 July, Monday

Time Temperature Precipitation Wind Pressure Humidity
00:00 +23°C° 1.1 mm 2 mps 745 mmHg 90%
01:00 +21°C° 0.1 mm 2 mps 745 mmHg 91%
02:00 +21°C° 0.1 mm 2 mps 745 mmHg 91%
03:00 +21°C° 0.1 mm 2 mps 745 mmHg 91%
04:00 +22°C° 0.2 mm 1 mps 744 mmHg 90%
05:00 +21°C° 0.2 mm 1 mps 744 mmHg 89%
06:00 +21°C° 0.2 mm 1 mps 744 mmHg 88%
07:00 +23°C° 0 mm 1 mps 744 mmHg 81%
08:00 +24°C° 0 mm 1 mps 744 mmHg 74%
09:00 +26°C° 0 mm 1 mps 744 mmHg 67%
10:00 +27°C° 0 mm 2 mps 744 mmHg 63%
11:00 +28°C° 0 mm 2 mps 743 mmHg 59%
12:00 +30°C° 0 mm 3 mps 743 mmHg 56%
13:00 +30°C° 0 mm 3 mps 743 mmHg 56%
14:00 +30°C° 0 mm 2 mps 743 mmHg 56%
15:00 +30°C° 0 mm 2 mps 742 mmHg 56%
16:00 +30°C° 0.1 mm 2 mps 742 mmHg 56%
17:00 +30°C° 0.1 mm 2 mps 742 mmHg 57%
18:00 +30°C° 0.1 mm 3 mps 741 mmHg 57%
19:00 +27°C° 2 mm 3 mps 742 mmHg 67%
20:00 +25°C° 2 mm 4 mps 742 mmHg 78%
21:00 +21°C° 2 mm 5 mps 742 mmHg 88%
22:00 +21°C° 1.3 mm 5 mps 742 mmHg 89%
23:00 +21°C° 1.3 mm 4 mps 742 mmHg 91%

Day after tomorrow, 14 July, Tuesday

Time Temperature Precipitation Wind Pressure Humidity
00:00 +20°C° 1.3 mm 3 mps 742 mmHg 93%
01:00 +20°C° 0.1 mm 3 mps 742 mmHg 93%
02:00 +19°C° 0.1 mm 2 mps 741 mmHg 93%
03:00 +19°C° 0.1 mm 2 mps 741 mmHg 94%
04:00 +19°C° 0.1 mm 2 mps 742 mmHg 94%
05:00 +19°C° 0.1 mm 2 mps 742 mmHg 94%
06:00 +19°C° 0.1 mm 3 mps 742 mmHg 94%
07:00 +20°C° 0 mm 3 mps 742 mmHg 90%
08:00 +22°C° 0 mm 3 mps 742 mmHg 86%
09:00 +24°C° 0 mm 3 mps 742 mmHg 82%
10:00 +24°C° 0.1 mm 3 mps 742 mmHg 81%
11:00 +24°C° 0.1 mm 3 mps 742 mmHg 80%
12:00 +25°C° 0.1 mm 3 mps 742 mmHg 79%
13:00 +25°C° 1.1 mm 3 mps 742 mmHg 77%
14:00 +25°C° 1.1 mm 4 mps 742 mmHg 75%
15:00 +26°C° 1.1 mm 4 mps 742 mmHg 72%
16:00 +25°C° 0.4 mm 5 mps 742 mmHg 74%
17:00 +25°C° 0.4 mm 5 mps 742 mmHg 76%
18:00 +23°C° 0.4 mm 6 mps 742 mmHg 77%
19:00 +22°C° 0.2 mm 6 mps 742 mmHg 82%
20:00 +21°C° 0.2 mm 5 mps 743 mmHg 86%
21:00 +19°C° 0.2 mm 4 mps 743 mmHg 90%
22:00 +19°C° 0.3 mm 5 mps 743 mmHg 91%
23:00 +17°C° 0.3 mm 5 mps 743 mmHg 92%

15 July, Wednesday

Time Temperature Precipitation Wind Pressure Humidity
00:00 +17°C° 0.3 mm 6 mps 743 mmHg 92%
01:00 +17°C° 0.2 mm 5 mps 743 mmHg 93%
02:00 +16°C° 0.2 mm 5 mps 743 mmHg 93%
03:00 +16°C° 0.2 mm 5 mps 743 mmHg 93%
04:00 +16°C° 0 mm 5 mps 743 mmHg 93%
05:00 +16°C° 0 mm 5 mps 743 mmHg 94%
06:00 +16°C° 0 mm 5 mps 743 mmHg 94%
07:00 +16°C° 0.1 mm 5 mps 743 mmHg 92%
08:00 +17°C° 0.1 mm 5 mps 743 mmHg 90%
09:00 +17°C° 0.1 mm 5 mps 744 mmHg 88%
10:00 +17°C° 0.4 mm 6 mps 744 mmHg 88%
11:00 +17°C° 0.4 mm 6 mps 744 mmHg 89%
12:00 +16°C° 0.4 mm 7 mps 744 mmHg 89%
13:00 +16°C° 0.1 mm 7 mps 745 mmHg 88%
14:00 +16°C° 0.1 mm 7 mps 745 mmHg 87%
15:00 +16°C° 0.1 mm 7 mps 745 mmHg 86%
16:00 +16°C° 0 mm 8 mps 746 mmHg 82%
17:00 +17°C° 0 mm 8 mps 746 mmHg 77%
18:00 +17°C° 0 mm 8 mps 746 mmHg 73%
19:00 +16°C° 0 mm 7 mps 746 mmHg 76%
20:00 +15°C° 0 mm 5 mps 747 mmHg 80%
21:00 +14°C° 0 mm 3 mps 747 mmHg 84%
22:00 +14°C° 0 mm 3 mps 747 mmHg 87%
23:00 +13°C° 0 mm 3 mps 747 mmHg 89%

16 July, Thursday

Time Temperature Precipitation Wind Pressure Humidity
00:00 +13°C° 0 mm 3 mps 747 mmHg 92%
01:00 +13°C° 0 mm 3 mps 747 mmHg 93%
02:00 +13°C° 0 mm 3 mps 747 mmHg 93%
03:00 +13°C° 0 mm 3 mps 747 mmHg 94%
04:00 +13°C° 0 mm 3 mps 747 mmHg 92%
05:00 +13°C° 0 mm 3 mps 747 mmHg 91%
06:00 +13°C° 0 mm 4 mps 747 mmHg 89%
07:00 +15°C° 0 mm 4 mps 747 mmHg 82%
08:00 +17°C° 0 mm 5 mps 747 mmHg 74%
09:00 +20°C° 0 mm 5 mps 747 mmHg 66%
10:00 +21°C° 0 mm 5 mps 747 mmHg 61%
11:00 +22°C° 0 mm 6 mps 747 mmHg 57%
12:00 +23°C° 0 mm 6 mps 747 mmHg 52%
13:00 +23°C° 0 mm 6 mps 747 mmHg 51%
14:00 +23°C° 0 mm 6 mps 747 mmHg 49%
15:00 +25°C° 0 mm 5 mps 747 mmHg 48%
16:00 +23°C° 0 mm 5 mps 746 mmHg 50%
17:00 +23°C° 0 mm 4 mps 746 mmHg 52%
18:00 +23°C° 0 mm 4 mps 746 mmHg 54%
19:00 +21°C° 0 mm 3 mps 746 mmHg 59%
20:00 +19°C° 0 mm 3 mps 746 mmHg 65%
21:00 +18°C° 0 mm 2 mps 746 mmHg 70%
22:00 +17°C° 0 mm 2 mps 746 mmHg 72%
23:00 +16°C° 0 mm 1 mps 746 mmHg 74%

17 July, Friday

Time Temperature Precipitation Wind Pressure Humidity
00:00 +16°C° 0 mm 1 mps 746 mmHg 76%
01:00 +16°C° 0 mm 1 mps 746 mmHg 78%
02:00 +15°C° 0 mm 1 mps 746 mmHg 79%
03:00 +15°C° 0 mm 1 mps 747 mmHg 80%
04:00 +15°C° 0 mm 1 mps 747 mmHg 80%
05:00 +16°C° 0 mm 1 mps 747 mmHg 81%
06:00 +16°C° 0 mm 1 mps 747 mmHg 81%
07:00 +19°C° 0 mm 1 mps 747 mmHg 74%
08:00 +21°C° 0 mm 1 mps 747 mmHg 68%
09:00 +22°C° 0 mm 1 mps 747 mmHg 61%
10:00 +24°C° 0 mm 1 mps 747 mmHg 56%
11:00 +25°C° 0 mm 1 mps 748 mmHg 51%
12:00 +26°C° 0 mm 1 mps 748 mmHg 46%
13:00 +27°C° 0 mm 1 mps 748 mmHg 43%
14:00 +27°C° 0 mm 1 mps 747 mmHg 41%
15:00 +28°C° 0 mm 1 mps 747 mmHg 39%
16:00 +27°C° 0 mm 1 mps 747 mmHg 39%
17:00 +27°C° 0 mm 1 mps 747 mmHg 40%
18:00 +27°C° 0 mm 1 mps 747 mmHg 40%
19:00 +25°C° 0 mm 1 mps 747 mmHg 45%
20:00 +23°C° 0 mm 1 mps 747 mmHg 50%
21:00 +21°C° 0 mm 1 mps 747 mmHg 55%
22:00 +21°C° 0 mm 1 mps 748 mmHg 57%
23:00 +21°C° 0 mm 1 mps 748 mmHg 58%
Show more